Toronto Pearson, Ontario

12:55 AM EST on November 19, 2019 (GMT -0500)
Toronto-Pearson International

Weather History for CYYZ - June, 2019

Change the Weather History Date:

Monday, June 3, 2019

  Actual Average Record
Temperature  
Mean Temperature 52 °F -  
Max Temperature 62 °F 75 °F 82 °F (2014)
Min Temperature 43 °F 53 °F 41 °F (1998)
Degree Days  
Heating Degree Days 12    
Growing Degree Days 2 (Base 50)    
Moisture  
Dew Point 35 °F    
Average Humidity 49    
Maximum Humidity 76    
Minimum Humidity 27    
Precipitation  
Precipitation 0.00 in 0.09 in - ()
Sea Level Pressure  
Sea Level Pressure 29.99 in    
Wind  
Wind Speed 15 mph ()    
Max Wind Speed 22 mph    
Max Gust Speed 33 mph    
Visibility 15.0 miles    
Events      
Averages and records for this station are not official NWS values.
T = Trace of Precipitation, MM = Missing Value Source: Averaged Metar Reports

Daily Weather History Graph

Daily Weather History Graph

Search for Another Location

Airport or City:

Astronomy

Jun. 03, 2019 Rise Set
Actual Time 5:39 AM EDT 8:54 PM EDT
Civil Twilight 5:03 AM EDT 9:30 PM EDT
Nautical Twilight 4:18 AM EDT 10:15 PM EDT
Astronomical Twilight 3:22 AM EDT 11:11 PM EDT
Moon 6:00 AM EDT (6/3) 9:16 PM EDT (6/3)
Length of Visible Light 16h 26m
Length of Day
15h 15m
New Moon, 0% of the Moon is Illuminated
Jun 3
New Moon
Jun 10
First Quarter
Jun 17
Full
Jun 25
Last Quarter
Jul 2
New

Hourly Weather History & Observations

Time (EDT) Temp. Windchill Dew Point Humidity Pressure Visibility Wind Dir Wind Speed Gust Speed Precip Events Conditions
12:00 AM 50.0 °F - 28.4 °F 43% 29.87 in 15.0 mi WNW 18.4 mph - N/A   Clear
1:00 AM 46.4 °F 39.5 °F 30.2 °F 53% 29.86 in 15.0 mi WNW 17.3 mph - N/A   Clear
2:00 AM 46 °F - 32 °F 46% 29.85 in 15 mi WNW 17.3 mph - -  
2:00 AM 46.4 °F 39.2 °F 32.0 °F 57% 29.85 in 15.0 mi WNW 18.4 mph - N/A   Clear
3:00 AM 46.4 °F 40.1 °F 33.8 °F 62% 29.85 in 15.0 mi WNW 15.0 mph - N/A   Clear
4:00 AM 44.6 °F 37.2 °F 35.6 °F 71% 29.86 in 15.0 mi WNW 17.3 mph 24.2 mph N/A   Clear
5:00 AM 44 °F - 36 °F 65% 29.88 in 15 mi NW 16.1 mph - -  
5:00 AM 44.6 °F 37.2 °F 35.6 °F 71% 29.88 in 15.0 mi NW 17.3 mph 23.0 mph N/A   Partly Cloudy
6:00 AM 44.6 °F 38.8 °F 37.4 °F 76% 29.91 in 15.0 mi WNW 11.5 mph 17.3 mph N/A   Partly Cloudy
8:00 AM 48 °F - 35 °F 49% 29.97 in 15 mi NW 18.4 mph - -   Mostly Cloudy
8:00 AM 48.2 °F - 35.6 °F 62% 29.97 in 15.0 mi NW 20.7 mph 27.6 mph N/A   Mostly Cloudy
9:00 AM 48.2 °F - 33.8 °F 58% 29.99 in 15.0 mi NNW 19.6 mph 28.8 mph N/A   Mostly Cloudy
10:00 AM 50.0 °F - 35.6 °F 58% 30.01 in 15.0 mi WNW 15.0 mph 20.7 mph N/A   Scattered Clouds
11:00 AM 53 °F - 35 °F 38% 30.03 in 15 mi WNW 17.3 mph - -  
11:00 AM 53.6 °F - 35.6 °F 51% 30.03 in 15.0 mi WNW 19.6 mph - N/A   Scattered Clouds
12:00 PM 55.4 °F - 37.4 °F 51% 30.04 in 15.0 mi West 15.0 mph 33.4 mph N/A   Scattered Clouds
1:00 PM 59.0 °F - 37.4 °F 45% 30.04 in 15.0 mi WNW 17.3 mph 32.2 mph N/A   Scattered Clouds
2:00 PM 60 °F - 38 °F 33% 30.03 in 15 mi West 13.8 mph - -   Scattered Clouds
2:00 PM 60.8 °F - 39.2 °F 45% 30.02 in 15.0 mi WSW 10.4 mph 24.2 mph N/A   Partly Cloudy
2:06 PM 60.8 °F - 37.4 °F 42% 30.02 in 15.0 mi WNW 13.8 mph 20.7 mph N/A   Partly Cloudy
4:00 PM 62.6 °F - 37.4 °F 39% 30.03 in 15.0 mi WNW 18.4 mph 25.3 mph N/A   Partly Cloudy
5:00 PM 61 °F - 36 °F 28% 30.04 in 15 mi WNW 21.9 mph - -  
5:00 PM 60.8 °F - 35.6 °F 39% 30.04 in 15.0 mi WNW 19.6 mph 29.9 mph N/A   Partly Cloudy
6:00 PM 60.8 °F - 35.6 °F 39% 30.04 in 15.0 mi WNW 19.6 mph 29.9 mph N/A   Partly Cloudy
7:00 PM 59.0 °F - 33.8 °F 39% 30.05 in 15.0 mi WNW 17.3 mph 29.9 mph N/A   Partly Cloudy
8:00 PM 58 °F - 33 °F 27% 30.06 in 15 mi NW 19.6 mph - -   Scattered Clouds
8:00 PM 57.2 °F - 33.8 °F 41% 30.06 in 15.0 mi NW 17.3 mph 27.6 mph N/A   Scattered Clouds
9:00 PM 55.4 °F - 35.6 °F 47% 30.08 in 15.0 mi WNW 13.8 mph - N/A   Scattered Clouds
10:00 PM 51.8 °F - 37.4 °F 58% 30.10 in 15.0 mi West 8.1 mph - N/A   Scattered Clouds
11:00 PM 53 °F - 36 °F 41% 30.10 in 15 mi WNW 10.4 mph - -  
11:00 PM 53.6 °F - 35.6 °F 51% 30.10 in 15.0 mi WNW 10.4 mph - N/A   Partly Cloudy